Powrót do katalogu

FENGYUN 1C DEB

AktywnySSO
NORAD 31497·DEBRIS·🇨🇳 China

Wystrzelony May 10, 1999 z Taiyuan Satellite Launch Center

Loading…

Następne Przeloty (najbliższe 24 godziny)

TLE

ŚwieżeSource: Space-Track

Epoka: Sep 13, 2026, 04:22 UTC

1 31497U 99025BWL 26256.18201480  .00000243  00000-0  80016-4 0  9992
2 31497  98.3982 238.9386 0166043 238.3308 180.8747 14.39581190 14394

Śledź FENGYUN 1C DEB w czasie rzeczywistym z AllMySat

Download on the App Store